Regional Weather Roundup
Issued by NWS

Home | Current Version | Previous Version | Text Only | Print | Product List | Glossary Off
Versions: 1 2 3 4 5 6 7 8 9 10 11 12 13 14 15 16 17 18 19 20 21 22 23 24 25 26 27 28 29 30 31 32 33 34 35 36 37 38 39 40 41 42 43 44 45 46 47 48 49 50

000
ASUS45 KABQ 250810
RWRNM
NEW MEXICO REGIONAL WEATHER ROUNDUP
NATIONAL WEATHER SERVICE ALBUQUERQUE NM
200 AM MDT THU MAY 25 2017

NOTE: "FAIR" MEANS FEW OR NO CLOUDS BELOW 12,000 FEET AGL WITH NO
       SIGNIFICANT WEATHER OR OBSTRUCTIONS TO VISION.

      THIS PRODUCT IS RELEASED AS TWO VERSIONS.  ONE VERSION NEAR
      THE TOP OF THE HOUR CONTAINING PRELIMINARY DATA FROM ALBUQUERQUE
      AND OTHER STATIONS.  A FINAL VERSION WITH ADDITIONAL DATA IS
      ISSUED ABOUT 10 MINUTES AFTER THE HOUR.

NMZ501-503-504-510>518-250900-
NORTHWEST PLATEAU/NORTHCENTRAL MOUNTAINS

CITY           SKY/WX    TMP DP  RH WIND       PRES   REMARKS
FARMINGTON     FAIR      66  26  22 W9        29.75S
LOS ALAMOS     FAIR      66  20  17 W26G35    29.90F
SANTA FE       FAIR      58  23  26 SW7       29.85S
TAOS           FAIR      43  19  39 CALM      29.89S
ANGEL FIRE     MOCLDY    39  31  75 CALM      29.96R

$$
NMZ402-403-502-505>509-250900-
WESTCENTRAL MOUNTAINS/SOUTHWEST MOUNTAINS

CITY           SKY/WX    TMP DP  RH WIND       PRES   REMARKS
GALLUP         FAIR      62  24  23 SW10      29.91S
GRANTS         FAIR      66  20  17 W15G25    29.93S
SILVER CITY    FAIR      55  21  26 NW10      29.92S

$$
NMZ407-409-411-412-250900-
SOUTHERN DESERTS

CITY           SKY/WX    TMP DP  RH WIND       PRES   REMARKS
DEMING         FAIR      66  20  17 NW8       29.85S
LAS CRUCES     FAIR      71  18  13 W16       29.83S
HOLLOMAN AFB   FAIR      72  18  13 E3        29.80R
ALAMOGORDO     FAIR      72  18  13 NE6       29.79S
T OR C         FAIR      73  18  12 CALM      29.81S

$$
NMZ519>523-250900-
CENTRAL VALLEYS/CENTRAL HIGHLANDS

CITY           SKY/WX    TMP DP  RH WIND       PRES   REMARKS
ALBUQUERQUE    FAIR      72  20  14 W16       29.79F
DOUBLE EAGLE   FAIR      62  24  23 SW12      29.84F
MORIARTY ARPT  FAIR      68  21  16 W15G24    29.87F
CLINES CORNERS FAIR      54  20  26 W15       29.91S
BELEN          FAIR      68  19  15 W10       29.82S
SOCORRO        FAIR      78  20  11 W21G26    29.78F

$$
NMZ524>526-539-540-250900-
SOUTHCENTRAL MOUNTAINS

CITY           SKY/WX    TMP DP  RH WIND       PRES   REMARKS
RUIDOSO        FAIR      68  18  14 W13G21    29.96S

$$
NMZ527>531-250900-
NORTHEAST HIGHLANDS/NORTHEAST PLAINS

CITY           SKY/WX    TMP DP  RH WIND       PRES   REMARKS
LAS VEGAS      FAIR      56  23  27 SW14      29.85S
RATON          FAIR      51  33  50 N3        29.76F
CLAYTON        FAIR      57  39  51 W10       29.65F

$$
NMZ532>537-250900-
EASTCENTRAL PLAINS

CITY           SKY/WX    TMP DP  RH WIND       PRES   REMARKS
SANTA ROSA     FAIR      63  26  24 W8        29.72S
TUCUMCARI      FAIR      61  41  47 W9        29.61F
CANNON AFB     FAIR      67  35  30 W12       29.70S
CLOVIS AIRPORT FAIR      64  36  34 W10       29.68F

$$
NMZ028-029-538-250900-
SOUTHEAST PLAINS

CITY           SKY/WX    TMP DP  RH WIND       PRES   REMARKS
ROSWELL        FAIR      78  20  11 W16       29.65F
ARTESIA        FAIR      72  23  16 SW14      29.67S
CARLSBAD       FAIR      76  28  17 W13       29.66S
HOBBS          FAIR      63  41  45 S10       29.72F


$$




USA.gov is the U.S. government's official web portal to all federal, state and local government web resources and services.